Wind_Speed
23 22 22 21 21 21 20 20 19 19 18 18 18 17 16 16 15 14 13 13 12 11 11 11 11 10 10 10 10 11 11 12 12 13 14 14 14 14 14 14 14 13 14 14 13 13 14 14 14 15 15 16 16 17 18 18 19 19 19 20 20 20 21 22 23 23 23 22 18 14 12 12 12 14 16 19 22 22 20 18 17 16 15 14 13 13 13 13
24 23 23 23 23 22 22 21 21 20 20 20 19 19 18 18 17 16 16 15 15 14 13 13 13 13 13 12 13 13 14 14 15 15 16 16 16 16 16 16 16 16 16 16 16 16 16 16 16 17 17 18 18 19 20 20 20 21 21 21 21 22 23 24 24 24 22 20 16 13 11 12 13 15 17 20 23 23 20 19 17 16 15 14 14 14 14 14
26 25 25 25 24 24 23 23 23 22 22 22 21 21 21 20 19 19 18 18 17 16 16 15 15 15 15 15 15 15 16 16 17 17 18 18 18 18 18 17 17 17 18 18 18 18 18 18 19 19 19 20 20 20 21 22 22 22 22 23 24 24 25 25 24 22 20 18 14 12 12 13 13 15 18 20 24 23 21 20 19 18 16 15 15 14 14 14
28 27 27 26 26 26 25 25 24 24 24 23 23 23 23 22 21 21 20 19 19 18 18 17 17 17 17 17 17 18 18 18 18 19 19 20 20 19 19 19 19 19 19 19 19 20 20 20 20 21 21 21 21 21 22 23 23 24 24 25 26 26 26 24 22 20 17 15 13 13 14 15 15 17 19 20 22 22 21 22 22 21 19 18 17 16 15 15
30 29 29 28 28 27 27 27 27 26 26 25 25 25 25 24 23 23 22 21 21 21 20 20 19 19 19 19 20 20 21 21 20 20 20 21 21 20 20 20 20 20 20 20 20 20 21 21 21 22 22 22 22 23 24 25 25 26 26 26 26 26 24 22 20 18 16 14 14 14 16 17 18 20 22 21 20 21 22 22 22 23 23 22 21 19 17 16
32 31 31 30 30 29 29 29 29 28 28 27 27 27 26 26 25 25 24 24 23 23 22 22 22 21 22 22 22 22 23 23 21 21 21 21 21 21 21 21 21 21 21 21 21 22 22 23 24 24 24 24 24 23 24 24 25 25 24 23 23 23 22 19 18 17 16 15 15 16 17 19 21 23 24 22 20 21 22 22 23 24 24 24 23 22 20 19
34 34 33 32 32 32 31 31 31 30 30 29 29 29 28 28 27 27 26 26 25 25 24 24 24 24 24 24 24 24 25 25 22 22 23 23 22 22 22 22 22 22 22 22 23 24 25 25 26 25 25 24 23 23 22 22 22 23 22 22 21 21 20 19 18 17 17 16 16 17 19 20 23 26 26 24 23 23 23 24 24 24 25 25 24 23 22 21
36 36 35 35 34 34 33 33 33 32 32 31 31 31 30 30 29 29 28 27 27 27 26 26 26 26 26 26 26 26 27 26 24 23 24 24 24 24 23 23 23 24 24 25 26 27 27 27 27 26 25 24 23 22 22 22 22 22 22 21 21 20 20 19 19 19 18 18 18 20 22 23 24 27 28 26 25 25 25 26 26 25 25 24 24 23 22 21
38 37 37 36 36 36 35 35 34 34 34 33 33 33 32 32 31 31 30 29 29 29 28 28 28 28 27 27 27 27 28 27 25 25 25 25 25 25 25 25 26 26 27 28 28 28 28 28 27 26 26 25 25 24 24 24 23 23 22 22 21 21 21 21 21 21 20 21 21 22 24 25 26 28 29 27 26 27 27 27 27 26 25 24 23 22 22 21
40 39 39 38 38 38 37 37 36 36 36 35 35 34 34 34 33 33 32 31 31 30 30 30 30 30 29 29 28 28 29 28 26 26 26 27 27 27 27 28 28 29 30 30 30 30 29 29 28 28 27 26 27 27 27 26 25 25 23 23 23 22 22 23 23 24 24 24 24 24 25 26 27 29 30 29 27 28 28 28 27 26 25 23 22 22 21 21
41 41 40 40 40 39 39 38 38 38 37 37 37 36 36 36 35 35 34 34 33 33 32 32 32 32 31 30 29 29 30 29 28 28 29 29 29 30 30 30 31 31 32 32 32 31 30 29 29 29 29 28 28 29 28 28 27 26 25 24 24 24 25 26 26 27 27 27 26 25 25 26 27 29 31 30 29 28 28 27 26 26 25 24 23 22 21 21
43 43 42 42 41 41 41 40 40 39 39 39 39 38 38 38 37 37 37 36 36 35 35 34 34 34 33 31 30 30 31 30 30 31 31 31 32 32 32 33 33 34 34 33 32 32 31 30 30 30 30 30 30 30 29 28 28 27 26 25 26 26 27 27 28 28 29 29 28 27 25 26 28 30 30 30 29 28 26 25 25 25 25 25 25 24 23 23
45 45 44 44 43 43 42 42 42 41 41 41 41 41 40 40 40 40 39 39 38 37 37 36 36 36 35 33 32 32 33 33 33 33 34 34 34 34 35 35 35 35 35 34 33 32 32 31 31 31 31 31 31 31 30 29 28 28 27 26 26 27 27 28 28 28 29 30 30 29 26 25 28 30 29 29 29 27 25 24 25 25 25 26 26 26 25 25
47 47 46 46 45 45 45 44 44 44 44 43 43 43 43 42 42 42 41 41 40 40 39 38 38 37 36 34 34 34 35 35 35 36 36 36 36 37 37 37 36 36 35 34 34 33 33 33 33 32 32 32 31 31 30 29 29 28 28 27 27 27 27 27 28 28 30 31 31 30 27 24 27 29 28 28 27 26 25 24 25 26 26 27 26 26 26 26
49 48 48 48 48 47 47 47 46 46 46 46 46 45 45 45 44 44 43 42 42 41 40 40 39 39 38 36 36 37 37 37 38 38 39 38 38 38 38 37 37 36 36 35 34 34 34 33 33 33 32 32 31 31 30 30 29 29 29 29 28 27 26 27 28 29 30 31 30 30 27 24 25 28 28 28 27 25 25 25 26 26 27 27 26 26 26 27
50 50 49 49 49 49 49 49 48 48 48 48 47 47 46 46 46 45 44 43 43 42 41 41 40 40 40 39 38 39 39 40 40 40 40 40 40 39 38 38 37 37 36 35 35 34 34 34 33 33 32 31 30 30 31 30 30 31 31 30 28 27 26 26 28 29 30 30 29 29 27 25 25 27 28 28 27 27 27 27 27 27 27 27 27 27 28 28
51 51 50 50 50 50 50 50 50 49 49 49 48 48 47 47 46 46 45 45 44 43 43 43 42 43 43 42 41 40 41 41 41 41 41 40 40 39 39 38 38 37 36 35 34 33 33 33 32 32 31 30 30 31 33 32 32 33 32 31 29 28 27 26 27 29 30 30 30 29 27 26 27 29 28 28 27 28 28 28 27 27 27 27 27 28 29 29
53 53 52 52 52 51 51 51 51 50 50 50 49 49 48 48 48 48 47 46 46 46 45 45 45 46 45 43 42 42 42 42 42 42 41 41 40 40 39 38 37 35 34 33 33 33 33 33 33 33 31 30 32 34 35 34 33 33 32 31 30 29 28 27 28 31 31 31 31 30 29 28 30 31 30 29 28 28 28 28 27 26 26 27 28 28 29 30
54 54 54 54 53 53 52 52 52 52 51 51 51 51 50 50 50 49 49 48 48 47 47 47 47 47 47 45 44 43 43 43 42 42 42 41 40 39 38 36 35 34 34 34 34 35 35 35 35 33 30 31 34 35 35 35 34 33 32 32 31 30 29 28 30 32 32 32 32 32 32 31 31 32 31 30 29 29 28 28 27 27 27 27 28 28 29 30
54 54 53 54 54 54 53 53 53 53 53 53 52 52 51 51 51 50 50 50 49 49 50 50 49 49 49 47 46 45 45 44 44 43 42 40 39 37 36 35 34 35 34 35 35 35 36 36 35 32 31 34 36 35 35 35 34 34 33 33 34 33 31 31 33 34 34 35 33 34 34 33 33 33 32 30 29 28 28 28 28 28 28 27 27 28 29 30
55 55 54 54 53 53 53 53 53 53 53 53 52 52 52 51 52 51 51 50 50 50 50 50 50 49 49 48 48 47 46 45 43 41 39 38 37 36 35 35 35 35 34 35 36 35 36 37 34 33 35 36 37 37 37 36 36 36 36 36 36 35 34 34 36 36 36 36 35 34 33 33 33 32 31 30 29 28 28 28 29 29 28 28 28 28 29 31
56 56 55 55 54 54 53 53 52 52 52 51 51 51 51 51 51 51 50 50 49 49 49 48 48 47 47 47 46 45 44 42 40 38 37 36 36 36 36 35 35 34 35 35 36 36 37 37 35 36 38 37 38 38 38 38 38 37 37 37 37 35 36 37 37 37 37 37 36 35 33 32 32 30 29 29 28 28 28 29 29 29 29 29 29 30 31 32
58 56 56 56 56 55 55 54 53 52 51 50 50 50 50 50 50 50 50 50 49 47 47 47 46 45 44 44 43 42 41 39 38 37 37 37 36 36 35 34 34 35 36 36 36 38 39 38 38 39 39 39 39 39 39 38 38 38 38 38 37 36 37 38 38 37 37 37 36 36 34 32 31 29 28 27 28 29 29 29 29 29 30 30 31 32 32 33
59 58 57 57 57 56 56 56 55 53 52 52 51 50 50 50 50 50 50 51 51 48 46 47 46 45 43 43 42 42 41 39 39 38 38 37 36 36 35 35 35 36 36 36 37 38 39 38 38 39 39 40 41 40 39 39 38 39 38 37 37 36 38 38 38 37 37 37 36 36 36 33 31 30 29 28 29 29 30 30 30 31 32 32 33 33 34 34
62 60 59 58 58 57 57 57 55 54 54 53 53 52 52 52 52 52 52 54 55 50 47 48 48 47 46 45 45 43 43 42 40 39 38 37 36 35 35 36 37 37 36 36 38 38 39 38 39 40 40 41 41 41 40 39 39 39 38 37 37 37 37 37 37 37 37 36 35 36 37 34 32 32 31 30 31 31 31 31 32 32 33 33 34 35 35 36
64 63 61 60 60 59 58 57 56 55 55 54 54 54 54 53 53 54 54 56 57 53 49 49 49 50 48 47 46 44 45 44 40 39 38 36 36 36 37 38 38 38 37 38 40 40 40 40 41 41 41 41 41 40 40 40 41 40 37 36 36 36 36 36 36 36 36 36 35 36 36 35 34 34 34 34 34 34 33 33 33 33 34 34 35 35 36 37
66 65 64 62 61 61 59 58 57 57 56 56 56 55 55 55 54 54 54 56 58 54 50 49 49 50 49 47 46 45 46 43 39 38 38 37 37 37 38 39 39 39 40 42 43 42 41 43 44 43 43 42 40 39 40 41 41 39 36 35 35 35 35 35 34 34 35 35 34 34 34 36 37 37 37 37 37 36 35 35 35 34 34 35 36 37 37 38
69 67 66 64 63 62 60 59 59 58 58 58 57 57 56 55 55 55 54 57 60 56 52 50 49 48 47 47 46 45 45 43 40 39 38 38 39 39 40 40 40 41 43 44 45 44 45 46 46 45 44 42 39 39 39 39 39 37 35 34 34 34 34 34 34 34 33 33 33 32 33 36 38 37 37 38 37 37 36 35 35 35 36 36 37 37 37 37
71 70 67 66 64 63 62 61 60 60 61 60 59 58 57 56 56 55 56 59 62 59 56 54 50 46 45 45 46 45 44 43 42 41 40 40 41 41 42 42 43 44 45 46 47 47 48 48 47 45 43 41 40 39 38 38 38 36 35 34 33 34 34 34 33 33 32 32 31 31 33 36 38 36 35 36 35 35 34 34 35 35 36 37 37 36 36 35
70 71 70 68 66 64 63 62 62 62 62 61 60 59 58 59 58 57 60 62 62 62 60 56 53 48 44 43 44 44 43 43 43 42 42 43 42 43 43 44 45 46 47 48 49 49 49 48 45 43 41 40 39 38 37 37 36 35 34 34 34 34 34 34 33 32 32 31 30 31 32 35 37 36 34 34 34 34 34 34 34 35 35 36 37 37 36 35
65 70 71 70 67 66 65 63 63 63 63 62 62 60 60 60 59 60 63 61 60 62 60 58 56 52 46 43 42 42 43 43 43 44 44 44 44 45 45 45 46 48 50 51 50 49 47 45 42 40 40 39 37 36 35 35 34 34 35 35 35 36 36 35 34 33 33 32 31 33 34 35 37 37 36 35 35 35 35 35 35 36 37 38 39 39 38 37
61 66 69 70 69 67 66 65 65 65 65 64 63 63 62 62 63 64 63 61 61 61 58 58 57 54 50 46 44 43 43 44 45 45 46 46 46 46 45 46 48 50 52 50 46 44 43 40 38 37 37 36 35 34 34 34 34 35 35 35 36 37 37 37 36 35 35 35 36 37 37 38 39 37 37 37 37 38 38 38 38 39 40 41 42 41 41 41
59 61 64 68 69 69 67 65 66 66 66 66 65 64 62 63 65 64 62 62 61 60 58 58 57 55 54 51 49 47 46 46 46 46 47 47 47 47 47 48 49 49 47 43 41 41 39 38 36 36 35 34 35 34 34 35 35 36 36 36 37 37 38 38 37 38 39 39 40 41 42 43 41 39 38 38 39 40 40 40 42 43 44 45 46 45 45 45
58 59 61 64 68 69 66 65 65 66 67 67 67 65 64 65 65 63 63 63 60 59 58 57 57 57 56 55 53 51 49 49 48 47 47 48 49 49 49 49 47 45 43 41 40 39 38 36 35 34 34 34 34 34 35 36 37 36 37 37 38 39 39 38 39 41 43 43 43 43 44 43 42 41 40 41 41 41 41 42 44 45 47 48 48 48 48 49
54 56 57 58 60 62 62 63 65 67 67 67 67 69 70 68 64 63 63 61 60 59 58 56 56 56 57 57 55 53 50 49 48 48 48 49 50 50 48 46 43 43 42 41 39 38 37 35 33 32 33 33 34 35 36 37 38 37 38 38 38 38 38 39 42 43 44 44 44 43 43 42 42 42 43 44 43 42 42 44 45 47 47 48 48 49 50 50
45 46 48 50 51 52 54 56 58 61 62 64 68 72 67 61 60 60 59 58 58 57 57 57 58 58 58 57 56 53 51 49 49 48 49 48 47 45 42 40 40 42 42 40 39 38 37 35 33 33 34 35 36 38 38 39 39 38 38 38 38 38 40 42 43 43 44 45 44 43 43 43 43 45 45 45 45 45 45 46 47 47 47 47 48 49 50 50
46 45 44 43 45 46 47 47 49 52 55 59 65 64 55 51 53 53 53 54 55 55 56 57 58 58 58 58 56 54 51 49 48 47 46 44 43 42 40 39 41 42 41 40 40 40 39 38 36 36 37 39 40 40 40 40 39 39 39 39 39 41 43 43 43 43 44 45 45 44 45 45 46 48 48 47 47 48 48 48 47 47 47 48 48 49 49 49
49 48 45 42 42 44 44 44 47 50 52 56 60 55 49 48 48 47 48 50 51 52 53 54 55 56 56 55 54 52 50 49 47 44 42 41 42 42 41 41 41 42 42 42 43 44 42 41 40 40 39 40 41 42 42 41 39 39 40 41 42 43 44 43 43 43 44 46 47 47 47 48 50 51 51 51 51 51 50 49 48 48 48 49 49 50 49 48
50 50 49 46 45 45 44 46 49 52 54 57 58 53 48 48 47 46 46 45 45 46 47 48 49 50 50 49 49 48 49 48 47 45 43 42 43 43 42 42 42 42 43 44 46 46 45 44 44 43 42 42 43 44 43 40 40 41 43 44 44 44 44 43 43 44 45 47 49 50 51 51 53 54 55 55 55 54 53 50 50 50 50 50 50 49 48 48
52 53 52 49 49 48 47 49 53 56 58 59 57 53 48 47 47 46 45 43 43 44 43 45 46 47 47 46 46 47 48 48 48 47 47 46 47 46 45 44 44 45 45 46 47 48 48 48 46 45 46 46 46 44 42 41 43 45 46 47 46 44 44 44 44 45 47 48 50 53 54 54 56 58 59 58 58 57 55 53 52 52 51 52 50 49 49 50
54 56 54 51 52 54 54 57 58 60 61 59 57 54 50 49 47 46 45 46 47 47 47 48 48 48 48 48 47 48 49 50 50 50 50 49 48 46 45 45 46 47 47 48 48 48 48 48 48 48 50 49 48 46 45 46 47 48 48 48 46 44 44 45 47 47 48 49 50 54 57 56 58 61 61 61 60 59 59 57 56 55 54 53 51 51 52 53
55 57 56 53 54 56 59 62 62 63 63 60 57 56 54 52 51 50 49 50 51 52 52 52 52 51 50 50 50 51 52 53 53 52 51 49 46 45 46 48 49 49 50 50 49 49 49 50 52 53 52 50 49 48 48 49 49 49 49 47 45 45 45 47 48 48 49 52 54 58 60 58 57 60 61 61 60 59 60 60 59 58 56 55 54 54 55 55
55 57 56 55 56 57 59 61 60 60 61 58 56 57 57 55 54 53 52 52 52 52 53 54 54 53 52 52 53 55 56 57 57 55 52 48 45 45 47 50 50 51 52 52 51 52 53 54 54 53 51 50 50 50 51 52 52 51 48 45 44 45 45 46 48 49 53 57 59 61 62 59 57 58 59 60 60 58 58 59 59 58 56 55 56 56 57 57
56 59 59 59 60 61 61 61 59 57 56 55 55 57 56 56 55 55 54 54 54 54 54 55 55 55 55 55 57 59 59 60 60 57 52 49 46 46 49 51 51 51 52 53 53 54 54 53 51 50 50 51 52 53 53 52 49 46 44 44 44 45 46 49 51 54 58 61 61 63 62 59 57 57 58 59 59 58 57 56 56 55 55 55 57 58 58 59
54 56 57 56 58 59 60 61 59 57 56 55 55 56 56 57 58 57 58 59 59 59 59 59 59 59 59 59 60 61 61 61 60 56 53 50 49 50 52 54 54 53 51 49 48 49 49 47 47 48 49 51 52 53 51 49 45 45 46 48 48 50 53 55 57 60 63 63 62 63 62 59 56 58 59 58 56 54 54 53 53 54 55 57 58 59 60 62
52 55 54 51 53 55 56 57 59 59 58 56 57 58 58 58 59 59 60 61 61 62 62 62 62 62 62 62 61 62 62 60 58 55 54 54 54 55 57 58 58 55 51 47 44 45 47 46 45 47 48 49 51 51 51 50 50 51 52 53 54 56 58 59 62 63 63 63 63 62 61 59 58 58 58 55 51 51 52 53 54 55 57 59 60 61 63 65
52 56 56 53 55 57 55 55 56 58 58 58 59 61 61 62 62 61 61 62 62 62 62 63 63 63 62 61 60 60 58 55 54 54 54 55 56 57 58 58 56 54 51 48 45 46 48 48 47 48 49 51 53 54 54 55 55 55 56 56 57 58 59 61 63 62 61 64 65 62 60 62 60 57 55 52 50 52 53 54 56 58 59 60 62 65 67 68
56 56 58 57 58 58 55 53 52 53 57 60 62 62 62 63 62 61 61 62 63 62 62 63 62 60 59 58 57 57 54 51 51 52 53 54 54 54 53 51 50 49 49 47 45 44 47 48 47 49 51 53 55 57 57 58 58 58 59 60 59 59 61 62 63 62 62 64 65 62 60 62 60 56 55 54 54 54 55 56 57 59 61 63 65 67 68 69
58 57 58 59 59 58 57 55 52 52 55 57 58 57 57 57 57 57 58 60 62 63 63 63 60 58 57 56 55 53 50 48 49 51 52 53 52 51 48 47 47 47 47 47 46 47 49 49 49 50 52 53 56 59 60 61 62 63 62 61 60 61 64 65 64 64 64 64 64 62 61 62 62 60 57 56 55 56 57 58 60 62 63 65 66 67 68 69
58 58 58 59 58 58 57 57 56 56 57 57 57 55 53 52 52 53 54 55 57 59 60 60 58 57 57 55 52 49 47 48 50 52 52 51 49 47 46 46 47 48 49 49 50 51 52 53 53 53 55 55 57 60 63 64 65 65 64 61 61 64 67 67 66 65 63 63 62 61 62 65 63 59 55 55 57 59 60 61 62 63 65 67 68 68 68 69
60 60 62 61 59 58 57 57 57 58 59 60 59 58 56 55 54 54 53 52 52 54 55 56 56 55 53 51 50 49 49 50 51 52 52 50 48 47 47 48 50 51 52 53 53 53 54 55 55 55 57 57 57 60 64 65 65 66 65 63 63 65 66 65 65 64 63 63 62 62 66 66 61 57 59 61 61 60 59 61 63 65 66 68 68 69 69 69
62 63 64 64 65 64 63 62 61 60 60 59 58 57 57 58 58 57 57 56 54 53 54 54 54 52 50 50 51 53 53 53 53 53 53 53 52 51 51 52 53 54 55 55 56 56 56 56 55 56 59 60 59 62 64 64 66 68 66 63 62 63 64 64 64 64 64 64 64 66 68 66 63 63 64 62 59 57 58 61 64 66 66 67 67 68 68 68
Wind_Direction
218 218 218 220 221 222 225 227 229 231 233 235 235 236 236 237 238 239 241 242 244 247 251 256 260 264 268 271 275 277 278 277 274 270 266 262 259 257 255 254 255 256 259 261 262 264 267 269 272 276 278 281 284 287 288 289 291 291 292 293 295 297 299 301 302 303 302 301 300 299 297 296 298 300 304 305 302 302 309 313 313 314 313 314 312 309 306 302
223 224 224 224 225 226 228 229 231 233 235 237 238 239 239 240 241 242 244 245 247 250 252 256 260 264 267 270 274 276 277 275 273 271 268 265 262 261 260 259 260 261 264 266 268 269 271 274 276 278 280 282 284 286 288 289 289 290 291 292 293 296 298 300 301 300 299 297 295 292 288 289 294 299 303 303 299 302 310 310 309 309 308 309 307 305 303 300
227 227 228 228 229 230 231 232 234 235 237 238 239 240 242 242 243 244 245 247 250 252 255 257 260 264 267 271 274 276 276 274 272 269 267 265 264 262 262 262 263 265 266 269 271 273 275 277 278 280 281 283 285 286 287 288 288 289 291 292 293 295 296 298 298 297 294 292 289 284 280 282 287 294 299 298 297 303 309 306 305 305 305 305 303 301 300 298
229 230 231 231 232 233 233 234 236 237 238 239 240 241 243 244 245 246 247 249 251 254 256 259 261 264 268 271 275 276 275 273 270 268 266 265 264 264 263 264 265 266 268 270 273 275 277 278 280 281 282 283 284 285 286 287 288 289 290 291 293 293 294 295 295 292 289 287 284 280 278 280 285 291 293 292 295 302 303 301 304 305 305 304 302 300 298 295
231 232 233 233 234 235 235 236 237 238 238 239 241 242 243 244 245 247 248 250 252 255 257 259 262 265 269 272 275 276 275 272 269 267 265 264 263 263 264 264 266 267 269 272 274 276 278 279 281 282 283 284 284 285 285 286 288 289 289 291 291 291 292 292 289 287 285 283 281 279 279 283 288 291 291 291 294 297 296 298 302 303 304 305 304 302 300 296
232 233 233 234 235 236 236 236 237 238 239 240 241 242 243 244 246 247 249 251 253 255 258 260 263 266 270 273 275 277 275 271 269 268 265 263 263 263 264 265 266 268 270 273 276 278 280 282 283 283 284 284 284 284 285 286 287 289 290 290 290 290 289 287 283 282 282 281 280 279 280 285 291 292 291 293 294 292 294 298 299 300 303 304 304 304 303 300
233 234 234 234 235 236 236 237 238 239 240 240 241 242 244 245 246 247 249 251 253 256 258 261 264 267 271 274 275 276 274 271 269 267 265 265 265 265 265 266 268 270 272 275 278 281 283 285 285 285 285 284 284 284 284 285 287 289 290 291 289 288 286 284 280 280 281 281 282 282 284 289 292 292 293 294 294 294 296 297 297 299 301 302 302 303 303 301
234 234 235 235 235 236 236 237 238 239 240 241 242 243 244 246 247 249 250 252 254 257 259 262 265 268 271 273 275 274 271 270 268 265 265 265 265 266 267 268 270 273 276 278 281 283 285 286 285 285 284 284 284 283 283 284 286 288 290 290 288 286 284 282 280 280 281 282 283 285 288 291 292 292 293 294 296 297 298 297 297 298 298 299 300 300 299 297
234 235 235 236 236 237 237 238 239 240 241 242 244 245 246 247 249 250 252 253 255 258 261 264 266 269 271 272 272 270 268 268 266 263 263 264 265 266 268 270 273 276 278 280 282 284 285 285 284 283 282 283 283 284 284 284 285 285 287 287 286 285 283 281 281 281 282 282 284 287 289 291 291 290 291 293 296 297 296 295 296 296 296 296 295 294 293 292
235 235 236 236 237 238 239 239 240 242 243 244 245 246 247 249 250 252 253 254 256 259 262 265 267 269 270 270 269 266 265 266 264 263 262 263 265 267 269 272 275 277 279 281 283 284 284 283 283 282 282 283 284 285 285 285 285 283 283 282 282 282 281 281 281 281 282 282 284 286 287 289 289 288 289 292 294 293 293 293 294 294 294 293 291 288 287 287
237 237 237 238 238 239 240 241 242 243 244 245 247 248 249 250 251 253 254 256 258 260 263 265 267 269 269 268 265 262 263 264 262 263 263 264 267 269 271 273 276 278 280 282 283 283 283 282 282 281 282 283 284 285 285 285 285 283 281 279 278 278 278 279 280 281 282 283 283 283 284 285 286 286 288 291 291 290 290 291 292 293 293 291 288 285 283 282
239 239 239 239 240 241 242 242 243 244 245 246 248 249 250 251 252 254 255 258 259 261 263 265 267 267 267 265 261 260 262 263 263 264 266 267 269 272 274 276 278 280 281 282 282 282 282 281 281 281 282 283 284 285 285 285 284 283 281 278 277 276 276 277 278 280 282 283 282 281 281 282 283 284 285 287 288 288 289 290 291 291 290 289 287 285 283 281
240 241 241 241 241 242 243 244 245 245 247 248 249 250 251 252 253 255 257 259 261 262 264 265 265 266 265 262 260 260 262 263 265 267 268 271 273 275 277 278 279 280 281 281 282 282 281 281 281 281 282 282 283 284 284 283 282 281 279 277 276 275 276 278 279 280 281 281 281 281 281 280 281 282 282 283 284 286 287 288 288 287 286 285 285 284 283 282
242 243 243 243 243 244 244 245 246 247 248 249 250 251 252 253 255 256 258 260 261 263 263 264 264 264 262 260 260 262 263 265 267 270 272 274 275 277 278 278 279 280 280 280 281 281 280 280 280 280 281 282 282 283 283 282 281 280 278 275 274 274 277 279 280 280 280 280 280 281 281 280 280 282 281 280 280 282 284 286 285 284 283 282 282 282 281 282
243 243 244 245 245 246 246 247 247 248 249 250 251 252 253 255 256 258 259 260 261 262 263 263 262 262 261 261 262 264 266 268 269 271 273 275 276 277 277 278 278 278 279 279 280 280 280 280 280 280 280 281 282 282 282 281 280 279 277 276 276 278 279 279 279 279 278 278 279 280 281 280 280 282 281 280 280 280 282 285 285 283 281 280 280 280 281 282
243 244 244 245 246 247 248 248 249 250 251 252 253 254 255 256 257 259 260 260 261 261 262 262 262 262 262 262 264 265 267 269 270 272 274 275 275 276 276 277 277 278 278 279 279 280 280 280 280 280 281 282 283 283 282 280 280 278 278 280 282 282 281 279 279 278 276 277 277 279 281 282 280 281 281 281 281 280 282 285 285 282 279 279 280 281 283 284
245 245 245 245 246 247 248 249 250 251 252 253 254 255 256 257 258 259 260 260 261 261 261 262 262 263 263 264 265 266 268 269 271 272 273 274 275 275 276 276 277 277 278 278 278 279 279 279 280 281 282 284 285 283 281 280 279 280 282 285 285 283 282 280 280 278 277 276 277 278 281 283 282 281 280 280 279 278 280 282 282 280 278 279 280 282 284 285
246 246 247 247 247 248 249 250 251 252 253 254 255 256 257 258 259 259 260 261 261 262 262 263 263 263 264 265 266 267 268 269 271 272 273 274 274 274 275 275 275 276 276 277 278 278 278 279 280 281 284 286 284 280 280 281 282 283 286 286 285 284 283 283 280 278 277 276 277 279 281 283 283 282 281 279 278 277 277 278 278 277 276 277 279 281 283 285
247 248 248 248 249 249 250 251 252 253 253 254 255 256 257 258 259 260 260 261 262 262 263 263 264 265 265 266 266 267 268 269 270 271 272 273 273 273 273 273 273 274 275 277 278 278 279 280 280 283 286 283 280 279 281 283 284 285 286 285 285 284 285 284 280 278 278 277 277 279 280 282 283 281 279 277 276 276 276 275 274 273 273 275 277 279 282 283
247 248 248 249 249 250 251 251 252 253 254 255 255 256 257 258 259 260 261 261 262 262 263 264 264 265 266 266 266 267 267 268 269 270 270 271 271 270 270 271 272 274 276 277 277 278 279 279 281 285 284 279 279 280 282 283 283 284 284 284 284 284 285 283 280 279 278 277 277 278 281 283 282 280 278 276 274 274 274 273 272 272 272 274 275 278 280 282
247 247 248 249 250 250 251 252 252 253 254 255 256 257 257 258 259 259 260 261 261 262 263 264 264 265 265 266 266 266 266 267 267 268 268 267 267 267 269 271 273 274 276 276 277 278 279 279 283 284 280 278 280 280 281 281 281 282 282 282 281 282 282 280 279 278 278 278 279 280 281 282 281 279 277 276 275 273 273 272 272 273 274 275 277 279 282 284
246 247 248 249 250 250 251 252 253 253 254 255 256 257 257 258 258 259 259 259 260 261 262 262 263 264 264 264 265 265 265 265 265 265 264 264 265 268 269 270 272 273 274 275 277 278 278 279 282 280 278 279 280 279 280 280 280 281 281 280 280 281 281 279 278 278 278 279 281 281 282 281 280 279 278 276 275 273 272 272 273 275 276 279 281 284 286 287
246 246 247 248 249 250 251 252 253 253 254 255 256 256 257 258 258 259 259 259 259 259 261 262 262 262 263 263 264 263 263 263 262 263 264 265 266 267 267 269 270 271 273 275 277 278 278 280 280 279 279 279 278 278 279 280 280 280 279 280 281 281 279 278 278 279 280 281 281 282 282 281 281 280 277 276 275 274 275 276 277 279 281 284 286 287 287 286
245 245 246 247 248 249 250 251 252 253 254 254 255 256 257 258 258 259 259 259 259 258 259 261 262 262 262 262 263 263 263 263 263 264 265 265 266 266 267 268 269 271 274 276 277 277 278 280 282 282 282 279 278 278 279 280 280 280 280 281 282 281 279 280 280 281 281 281 282 282 283 283 283 283 280 279 278 277 278 280 282 284 285 286 287 287 286 284
244 245 245 246 247 248 249 251 251 252 253 254 255 255 256 257 258 258 259 260 260 258 257 260 262 263 262 262 263 263 264 264 264 265 265 265 265 266 267 268 270 272 274 275 276 276 278 282 284 284 283 280 279 279 280 280 279 279 280 281 282 282 281 281 280 281 281 281 282 283 285 286 286 285 284 283 281 281 281 282 283 284 285 285 285 285 285 284
243 243 244 245 246 247 248 250 250 251 252 253 254 254 255 256 256 258 259 260 261 259 257 258 260 262 262 262 263 263 263 263 264 264 264 264 264 265 267 268 270 272 273 274 275 275 279 283 284 283 282 281 280 280 279 278 278 279 281 281 281 281 280 279 279 280 281 282 283 284 287 289 287 287 286 285 283 283 283 283 282 283 283 282 283 283 284 284
242 242 243 244 245 247 248 249 249 251 252 252 252 253 254 255 256 257 258 260 261 261 259 258 258 260 261 261 262 263 263 264 263 262 262 263 264 265 267 268 269 271 273 274 274 276 280 282 281 281 280 280 280 279 277 276 278 280 280 279 278 277 277 278 279 280 281 283 284 287 291 290 287 286 286 284 283 284 283 282 281 281 280 280 281 282 282 282
242 242 243 243 244 246 247 248 249 250 251 251 252 253 254 255 256 257 258 259 262 262 261 259 257 258 260 261 261 262 262 264 262 261 262 263 263 265 266 268 269 270 271 273 276 279 281 281 279 279 278 278 278 277 276 276 277 278 277 276 275 275 276 277 278 279 281 282 285 291 294 289 284 284 283 282 283 283 282 282 281 280 281 282 283 283 283 281
243 242 243 243 244 245 246 248 249 250 251 251 252 252 253 254 255 257 257 259 262 263 262 261 260 259 259 260 260 260 261 261 261 261 261 262 263 265 266 267 268 270 272 275 278 280 281 281 279 276 275 275 274 274 275 276 276 276 276 275 275 275 275 275 276 277 279 281 287 292 291 286 285 285 283 282 282 281 281 281 281 282 284 286 287 288 286 284
245 244 243 243 243 244 246 247 249 251 252 252 252 252 253 254 255 256 256 259 262 264 263 263 263 261 259 259 260 260 260 260 260 260 261 262 263 264 265 267 269 271 274 276 278 280 280 279 277 273 271 271 271 272 273 273 274 274 274 274 274 273 273 272 272 274 276 280 286 287 284 283 286 289 288 284 283 283 283 284 285 287 289 291 292 292 291 289
249 246 244 243 243 244 246 247 249 251 252 252 252 253 253 254 254 254 256 260 264 265 266 265 264 262 261 260 260 260 260 259 259 259 260 261 262 263 265 267 270 273 275 276 278 278 277 276 273 270 268 268 269 269 270 270 271 272 272 272 272 272 272 271 271 274 277 280 282 282 280 280 284 289 290 288 288 288 288 288 290 293 295 296 296 294 293 292
250 248 246 245 244 245 246 247 249 250 251 252 253 253 254 254 253 254 258 262 263 264 266 265 264 264 263 262 260 259 258 258 259 259 260 261 262 264 266 268 272 274 276 277 277 275 274 272 269 267 267 267 267 267 267 267 268 268 269 270 272 273 273 272 274 277 280 281 282 281 281 281 285 288 290 291 292 291 291 294 297 299 299 299 298 296 296 295
247 248 248 247 246 246 247 249 250 251 252 252 252 253 253 252 253 257 260 260 262 264 265 264 264 264 263 262 260 259 258 258 258 259 261 262 263 264 267 270 274 275 275 275 274 272 270 268 267 267 267 266 265 265 264 264 264 265 267 269 271 272 273 274 277 279 280 281 282 283 284 286 291 292 291 290 290 291 294 298 301 301 301 300 299 298 298 296
246 247 248 248 247 247 248 250 252 253 254 253 252 251 250 250 254 258 258 259 260 263 264 264 263 262 263 263 261 260 260 259 259 259 260 262 264 266 270 273 273 272 272 272 270 269 267 266 266 266 265 265 264 263 262 262 263 265 267 268 270 271 273 275 276 277 279 281 282 283 285 290 295 295 293 290 289 291 295 298 300 300 300 299 299 297 296 294
244 245 246 246 246 246 247 248 250 252 254 254 252 250 249 252 256 258 257 258 258 259 261 262 262 262 262 262 262 262 261 261 261 261 262 263 265 268 270 269 269 271 272 271 270 267 265 264 263 263 264 264 263 263 263 264 265 266 267 268 270 272 273 274 275 277 279 280 283 285 288 293 296 295 293 291 291 293 294 296 297 297 297 296 295 294 292 290
244 243 243 242 241 241 242 244 247 249 251 252 252 251 252 255 257 257 257 257 256 256 257 258 259 260 261 262 263 264 263 263 263 263 263 264 265 265 265 265 269 272 273 270 268 266 263 262 263 264 265 265 265 265 265 266 266 267 267 269 271 272 272 273 274 276 277 279 285 290 292 294 294 294 294 293 293 292 292 294 294 294 294 293 291 290 288 288
241 241 240 239 238 237 239 242 245 247 249 250 250 251 252 255 255 256 256 256 255 254 254 255 256 258 260 262 263 264 265 265 264 264 263 262 261 260 262 267 270 271 271 267 264 263 262 264 266 268 269 268 266 266 266 265 264 265 268 270 272 271 271 272 274 276 276 279 287 293 295 296 295 296 296 295 293 292 291 292 291 292 292 291 289 288 287 287
235 237 236 236 237 237 239 242 244 245 245 247 249 249 248 250 251 252 254 255 255 253 253 254 255 257 259 261 263 264 265 264 264 263 261 260 259 259 262 267 268 268 267 262 261 261 262 264 267 270 271 270 268 266 264 262 264 267 270 270 270 270 271 271 272 275 277 281 288 294 297 298 297 297 296 294 292 291 290 290 290 292 292 290 289 288 288 288
231 233 232 232 235 236 237 240 242 242 241 242 245 246 245 246 248 250 253 255 254 253 252 253 254 255 257 258 260 263 264 264 263 263 260 260 261 262 263 265 266 265 263 260 260 261 260 262 265 270 273 272 269 265 262 264 267 268 268 268 268 268 269 270 272 276 280 283 289 295 297 298 298 297 294 293 292 291 291 291 292 292 291 289 289 288 288 287
231 232 231 228 231 233 234 237 239 240 240 240 242 244 244 246 248 250 251 252 253 253 253 253 255 256 257 258 259 261 264 265 265 265 264 265 267 266 264 265 265 264 261 260 259 259 259 261 265 270 273 272 269 265 263 264 265 266 267 267 267 268 270 272 275 278 280 284 289 293 296 298 299 297 295 294 294 292 292 293 293 293 291 289 288 287 286 286
232 233 231 228 229 229 230 233 235 238 240 241 242 243 245 246 248 249 248 249 251 252 253 255 256 257 258 259 260 261 262 265 266 266 266 267 269 270 269 267 265 262 260 259 259 259 260 261 266 270 272 270 266 261 260 262 265 267 268 269 270 272 274 274 278 283 284 286 287 288 293 298 298 296 296 295 294 294 295 296 294 293 290 289 288 287 286 286
232 233 230 229 231 231 231 233 234 237 240 240 242 244 244 246 248 248 248 249 251 253 254 255 256 257 258 260 261 262 264 266 268 267 267 267 268 270 270 266 264 262 260 260 260 260 260 263 267 271 269 266 261 260 260 263 266 268 269 272 274 276 278 278 282 285 283 284 285 284 289 296 295 293 293 293 293 294 294 293 292 290 288 288 287 287 286 285
229 233 231 230 231 232 233 234 234 236 238 239 240 241 241 243 246 247 248 249 250 253 256 257 257 258 259 261 262 264 266 268 269 269 268 266 265 265 264 263 263 262 261 260 260 261 263 266 269 269 266 262 260 259 260 263 268 272 277 281 281 280 280 278 279 280 279 283 285 282 287 293 293 292 292 291 291 290 289 288 287 286 286 286 286 286 284 283
224 228 230 229 229 229 231 232 232 234 237 238 239 241 242 243 244 245 247 248 250 254 256 257 258 259 260 262 263 265 266 267 269 269 267 263 261 261 260 260 259 258 258 258 259 261 263 264 264 263 260 258 257 258 263 270 277 280 282 280 277 277 275 273 275 276 278 284 284 280 285 292 291 290 289 287 286 286 286 285 284 285 286 286 285 285 284 284
225 229 231 230 230 231 233 235 236 236 237 239 241 243 244 245 245 247 249 252 254 256 257 258 259 259 260 261 262 263 264 264 265 265 264 262 260 259 258 256 255 255 256 257 259 260 260 259 259 258 258 260 262 266 272 277 277 275 274 273 272 273 273 274 275 275 279 283 282 282 287 289 289 289 285 283 285 286 285 284 284 285 286 285 284 284 284 284
224 228 232 232 232 234 237 239 241 241 242 243 244 245 246 248 249 250 252 254 255 256 257 258 259 259 260 261 261 261 262 262 261 261 260 259 257 256 255 254 254 255 256 256 256 255 255 255 257 259 261 264 267 270 272 271 270 270 270 271 272 273 274 274 274 277 282 281 281 288 289 286 288 288 284 284 286 285 284 284 285 285 284 283 283 283 283 283
224 222 225 232 236 236 236 238 239 241 243 245 246 247 248 250 250 251 252 253 254 255 256 257 258 258 259 258 258 257 257 257 256 255 255 254 252 251 250 250 252 253 255 256 255 255 255 256 258 262 263 264 266 267 267 268 268 269 270 271 272 274 275 275 277 281 282 277 282 293 289 283 288 288 284 285 285 284 284 285 284 282 281 281 282 282 282 282
231 226 226 232 238 238 238 238 239 241 243 244 245 246 246 247 248 250 252 253 253 254 254 255 256 256 255 254 254 253 252 252 252 252 252 251 249 248 248 250 252 253 255 255 253 253 255 258 261 263 264 264 263 263 265 268 270 272 274 275 277 280 279 277 278 280 277 276 283 288 283 281 287 285 283 285 285 285 284 282 280 280 280 281 281 281 282 281
232 233 234 237 239 240 241 241 241 243 242 242 244 245 245 246 248 250 251 253 252 251 250 250 251 251 251 251 252 249 247 249 251 249 249 249 248 250 253 254 254 254 254 253 252 252 254 257 259 260 262 262 260 261 264 267 270 272 274 276 280 281 278 276 278 278 276 277 281 281 279 281 284 283 284 286 285 284 282 281 281 282 282 282 282 281 281 281
229 230 233 236 236 238 239 240 242 244 244 243 245 246 246 248 251 251 251 251 249 248 247 247 248 249 250 250 247 244 245 248 248 247 247 249 250 251 253 253 253 253 253 254 256 257 259 262 263 262 262 262 263 263 263 263 264 264 266 272 277 276 274 276 278 277 276 276 279 280 280 282 283 285 287 286 284 283 283 283 283 282 282 283 283 283 283 283
230 228 229 231 232 233 234 236 238 241 243 246 248 249 250 252 253 254 253 251 248 247 245 245 245 247 247 246 243 242 244 246 246 246 248 249 250 250 250 251 252 254 256 257 258 260 262 263 264 263 262 263 264 262 260 260 258 258 264 272 273 270 271 273 274 273 274 276 279 279 279 281 284 285 285 284 285 285 284 282 282 282 283 284 285 285 284 284
232 230 230 231 232 234 235 235 236 238 240 243 246 248 249 250 250 252 252 251 249 247 245 243 244 244 243 242 241 243 245 246 247 248 250 251 251 251 251 252 253 255 257 258 259 260 260 260 260 259 259 259 260 258 257 256 254 258 269 274 269 267 269 269 268 270 272 274 277 278 280 282 284 284 284 285 284 282 280 281 283 284 285 285 285 284 284 284
Height
5853 5854 5855 5856 5857 5858 5859 5861 5862 5863 5864 5865 5866 5866 5867 5868 5869 5869 5870 5871 5871 5872 5873 5874 5874 5875 5875 5876 5877 5877 5877 5878 5878 5879 5879 5879 5880 5880 5881 5881 5881 5882 5882 5882 5882 5882 5882 5882 5883 5882 5882 5882 5882 5882 5882 5881 5881 5881 5881 5881 5880 5880 5880 5880 5879 5879 5879 5878 5878 5877 5877 5877 5876 5876 5875 5873 5872 5872 5874 5875 5875 5876 5875 5875 5875 5875 5874 5874
5851 5852 5853 5854 5855 5856 5858 5859 5860 5861 5862 5863 5864 5865 5865 5866 5867 5868 5868 5869 5870 5871 5871 5872 5873 5874 5874 5875 5875 5876 5876 5876 5877 5877 5877 5878 5878 5879 5879 5879 5880 5880 5880 5880 5880 5880 5881 5881 5881 5881 5881 5881 5881 5880 5880 5880 5879 5879 5879 5879 5879 5878 5878 5878 5877 5877 5876 5876 5876 5876 5875 5875 5875 5874 5873 5872 5870 5870 5872 5873 5873 5874 5874 5874 5874 5873 5873 5872
5848 5850 5851 5852 5853 5854 5856 5857 5858 5859 5860 5861 5862 5863 5864 5865 5865 5866 5867 5867 5868 5869 5870 5871 5871 5872 5873 5873 5873 5874 5874 5875 5875 5875 5876 5876 5876 5877 5877 5878 5878 5878 5878 5878 5878 5878 5879 5879 5879 5879 5879 5879 5879 5878 5878 5877 5877 5877 5877 5876 5876 5876 5876 5875 5875 5875 5874 5874 5875 5874 5874 5874 5873 5873 5872 5871 5868 5869 5870 5870 5870 5871 5871 5872 5872 5872 5871 5871
5846 5847 5849 5850 5851 5852 5854 5855 5856 5857 5858 5859 5860 5861 5862 5863 5863 5864 5865 5866 5866 5867 5868 5869 5870 5870 5871 5871 5872 5872 5872 5873 5873 5874 5874 5874 5874 5875 5875 5875 5876 5876 5876 5876 5876 5876 5876 5877 5877 5877 5877 5877 5877 5876 5876 5875 5875 5875 5874 5874 5874 5874 5873 5873 5873 5873 5872 5873 5873 5873 5872 5872 5872 5872 5871 5870 5868 5868 5868 5867 5867 5867 5868 5869 5869 5869 5869 5869
5843 5845 5846 5847 5849 5850 5851 5852 5853 5854 5855 5856 5857 5858 5859 5860 5861 5862 5863 5863 5864 5865 5866 5867 5868 5868 5869 5869 5870 5870 5870 5870 5871 5872 5872 5872 5872 5873 5873 5873 5874 5874 5874 5874 5874 5874 5874 5874 5874 5874 5874 5874 5874 5874 5873 5873 5872 5872 5872 5872 5871 5871 5871 5871 5871 5870 5871 5871 5871 5871 5870 5870 5870 5869 5868 5869 5868 5868 5866 5866 5865 5865 5865 5865 5866 5866 5867 5867
5841 5842 5843 5845 5846 5847 5849 5850 5851 5852 5853 5854 5855 5856 5857 5858 5859 5860 5860 5861 5862 5863 5864 5864 5865 5866 5866 5867 5867 5868 5868 5868 5869 5869 5869 5869 5870 5870 5871 5871 5871 5871 5872 5872 5872 5872 5872 5872 5872 5872 5872 5872 5872 5872 5871 5870 5870 5869 5869 5869 5869 5868 5868 5869 5869 5869 5869 5869 5869 5869 5869 5868 5867 5866 5865 5866 5867 5866 5865 5864 5864 5863 5863 5862 5862 5863 5863 5863
5838 5839 5840 5842 5843 5845 5846 5847 5848 5849 5851 5851 5852 5853 5854 5855 5856 5857 5858 5859 5859 5860 5861 5862 5863 5863 5864 5865 5865 5865 5865 5865 5867 5867 5866 5867 5867 5868 5868 5869 5869 5869 5869 5869 5869 5869 5869 5869 5869 5869 5869 5869 5869 5869 5869 5868 5868 5867 5867 5867 5866 5866 5866 5866 5866 5867 5867 5867 5867 5867 5866 5866 5865 5863 5862 5863 5864 5863 5863 5862 5862 5861 5861 5860 5860 5860 5860 5860
5835 5836 5837 5839 5840 5842 5843 5844 5845 5846 5848 5849 5850 5850 5851 5852 5853 5854 5855 5856 5857 5858 5858 5859 5860 5860 5861 5862 5862 5863 5862 5862 5864 5864 5864 5864 5865 5865 5866 5866 5866 5866 5867 5867 5867 5866 5866 5866 5866 5866 5866 5866 5866 5866 5866 5866 5866 5865 5865 5864 5864 5864 5863 5863 5864 5864 5865 5865 5865 5865 5863 5864 5862 5860 5859 5860 5860 5860 5860 5860 5859 5859 5859 5859 5858 5858 5858 5857
5831 5833 5834 5836 5837 5838 5840 5841 5842 5843 5845 5846 5847 5848 5849 5850 5850 5851 5852 5853 5854 5855 5856 5856 5857 5858 5859 5859 5860 5860 5859 5860 5861 5862 5861 5862 5862 5862 5863 5863 5863 5863 5863 5864 5864 5864 5863 5863 5863 5863 5863 5863 5863 5863 5864 5864 5864 5863 5863 5862 5862 5861 5861 5861 5861 5861 5862 5862 5862 5862 5861 5861 5860 5857 5856 5857 5858 5857 5857 5857 5857 5857 5857 5857 5856 5856 5856 5855
5828 5829 5831 5832 5834 5835 5836 5838 5839 5840 5841 5842 5844 5845 5846 5847 5848 5848 5849 5850 5851 5852 5853 5853 5854 5855 5855 5856 5857 5857 5856 5857 5858 5858 5859 5859 5859 5859 5860 5860 5860 5860 5860 5860 5860 5860 5860 5860 5860 5860 5860 5861 5860 5860 5861 5861 5861 5861 5861 5860 5859 5859 5859 5858 5858 5858 5859 5859 5859 5859 5858 5858 5857 5855 5854 5855 5856 5855 5854 5854 5854 5854 5854 5854 5854 5854 5853 5853
5824 5826 5827 5829 5830 5832 5833 5834 5836 5837 5838 5839 5840 5841 5843 5843 5844 5845 5846 5847 5848 5849 5850 5850 5851 5852 5852 5853 5854 5853 5853 5854 5855 5855 5855 5856 5856 5856 5857 5857 5857 5857 5857 5857 5857 5857 5857 5857 5857 5857 5857 5858 5857 5857 5857 5858 5858 5858 5858 5858 5857 5857 5856 5856 5856 5855 5855 5856 5856 5857 5856 5855 5854 5852 5851 5851 5852 5852 5852 5852 5852 5851 5851 5851 5851 5851 5851 5851
5820 5822 5823 5825 5826 5828 5829 5831 5832 5833 5834 5835 5837 5838 5839 5840 5841 5842 5843 5844 5845 5846 5846 5847 5848 5848 5849 5850 5850 5850 5850 5851 5851 5852 5852 5852 5853 5853 5853 5853 5853 5853 5853 5854 5854 5854 5854 5854 5854 5854 5854 5854 5854 5854 5854 5855 5854 5855 5855 5855 5855 5854 5854 5853 5853 5853 5852 5852 5852 5853 5854 5853 5851 5850 5849 5849 5849 5849 5849 5849 5849 5849 5848 5848 5848 5847 5848 5847
5816 5818 5819 5821 5823 5824 5825 5827 5828 5829 5830 5832 5833 5834 5835 5836 5837 5838 5839 5840 5841 5842 5843 5843 5844 5845 5846 5847 5847 5847 5847 5848 5848 5848 5849 5849 5849 5850 5850 5850 5850 5850 5850 5850 5850 5850 5850 5850 5850 5851 5851 5851 5851 5851 5851 5851 5851 5851 5851 5852 5852 5851 5851 5851 5850 5850 5850 5849 5849 5849 5850 5851 5849 5847 5847 5846 5846 5846 5847 5847 5846 5846 5846 5845 5844 5844 5844 5844
5812 5813 5815 5817 5819 5820 5822 5823 5824 5825 5826 5827 5829 5830 5831 5832 5833 5834 5835 5836 5837 5838 5839 5840 5841 5841 5842 5843 5844 5844 5844 5844 5845 5845 5845 5846 5846 5846 5846 5846 5846 5846 5846 5846 5847 5847 5847 5847 5847 5847 5847 5847 5848 5847 5847 5848 5848 5848 5848 5848 5849 5849 5849 5848 5848 5847 5846 5845 5845 5845 5847 5847 5846 5844 5844 5844 5844 5844 5844 5844 5844 5843 5842 5842 5842 5841 5841 5841
5807 5809 5811 5813 5814 5816 5817 5818 5820 5821 5822 5823 5824 5825 5827 5828 5829 5830 5831 5832 5833 5834 5835 5836 5837 5837 5839 5840 5840 5840 5840 5841 5841 5841 5841 5842 5842 5842 5842 5842 5842 5842 5842 5843 5843 5843 5843 5843 5843 5844 5844 5844 5844 5844 5844 5844 5844 5844 5843 5844 5845 5846 5846 5846 5844 5844 5843 5842 5842 5842 5843 5844 5843 5841 5841 5840 5841 5841 5841 5841 5840 5840 5839 5839 5839 5838 5838 5838
5802 5804 5806 5808 5809 5811 5813 5814 5815 5816 5817 5819 5820 5821 5822 5823 5824 5825 5826 5827 5828 5829 5830 5831 5832 5833 5835 5836 5836 5836 5837 5837 5837 5837 5838 5838 5838 5838 5838 5838 5838 5838 5839 5839 5839 5839 5839 5839 5839 5840 5840 5841 5841 5840 5839 5840 5840 5840 5839 5840 5842 5843 5843 5842 5841 5840 5839 5838 5838 5839 5839 5840 5840 5838 5837 5837 5838 5838 5838 5838 5837 5837 5836 5836 5836 5835 5835 5835
5797 5799 5801 5803 5804 5806 5807 5809 5810 5811 5813 5814 5815 5816 5817 5819 5820 5821 5822 5823 5824 5825 5826 5827 5828 5829 5830 5831 5832 5833 5833 5833 5833 5833 5834 5834 5834 5834 5834 5834 5834 5834 5835 5835 5835 5835 5835 5835 5836 5836 5837 5837 5837 5836 5835 5835 5836 5836 5836 5837 5838 5838 5839 5839 5838 5836 5835 5835 5835 5835 5836 5837 5836 5835 5835 5835 5835 5834 5834 5834 5834 5834 5833 5833 5833 5832 5832 5832
5792 5794 5796 5797 5799 5801 5802 5804 5805 5806 5808 5809 5810 5811 5813 5814 5815 5816 5817 5818 5819 5820 5821 5822 5823 5824 5825 5827 5828 5828 5829 5829 5829 5829 5829 5830 5830 5830 5830 5830 5830 5831 5831 5831 5831 5831 5831 5831 5832 5832 5833 5834 5833 5831 5830 5831 5832 5832 5833 5833 5833 5834 5834 5835 5834 5831 5831 5831 5831 5831 5832 5833 5832 5831 5831 5831 5831 5831 5831 5831 5830 5830 5830 5830 5830 5830 5829 5829
5786 5788 5790 5792 5794 5795 5797 5798 5799 5801 5802 5803 5805 5806 5807 5809 5810 5811 5812 5814 5815 5815 5816 5817 5818 5819 5821 5822 5823 5824 5824 5825 5825 5825 5825 5826 5826 5826 5826 5826 5827 5827 5827 5827 5827 5827 5827 5827 5828 5829 5830 5829 5827 5827 5827 5827 5828 5828 5829 5828 5828 5829 5830 5831 5829 5827 5827 5827 5828 5828 5828 5829 5828 5827 5827 5828 5828 5827 5827 5827 5827 5827 5827 5827 5827 5827 5826 5826
5780 5782 5785 5787 5788 5790 5791 5793 5794 5796 5797 5798 5800 5801 5802 5803 5804 5806 5807 5808 5809 5810 5811 5812 5813 5814 5815 5817 5818 5819 5819 5820 5820 5821 5821 5822 5822 5822 5822 5823 5823 5823 5823 5823 5823 5823 5823 5823 5824 5826 5826 5824 5823 5823 5824 5824 5824 5825 5825 5825 5824 5825 5826 5826 5824 5823 5823 5823 5824 5824 5824 5825 5824 5823 5823 5823 5824 5824 5823 5823 5823 5823 5823 5823 5823 5823 5823 5823
5774 5776 5779 5781 5783 5784 5786 5787 5789 5790 5791 5793 5794 5795 5797 5798 5799 5800 5802 5803 5804 5805 5806 5807 5808 5809 5811 5811 5812 5813 5814 5815 5816 5816 5817 5817 5817 5818 5818 5819 5819 5819 5819 5819 5818 5819 5819 5819 5822 5822 5820 5820 5820 5820 5820 5820 5820 5820 5821 5820 5820 5821 5821 5821 5819 5819 5819 5818 5820 5820 5820 5820 5819 5819 5819 5819 5819 5820 5819 5819 5819 5819 5819 5819 5820 5820 5820 5819
5769 5771 5773 5775 5777 5779 5780 5782 5783 5785 5786 5788 5789 5790 5791 5792 5793 5794 5796 5797 5799 5800 5801 5802 5803 5805 5806 5806 5807 5808 5809 5810 5811 5812 5813 5813 5813 5814 5815 5815 5815 5815 5815 5815 5815 5815 5814 5816 5818 5817 5816 5816 5816 5815 5815 5815 5816 5816 5816 5815 5816 5817 5816 5815 5815 5814 5814 5814 5815 5815 5816 5816 5815 5815 5815 5815 5815 5815 5815 5815 5815 5815 5815 5815 5816 5815 5815 5815
5762 5765 5767 5769 5771 5773 5775 5776 5778 5780 5781 5783 5784 5785 5786 5787 5788 5789 5790 5791 5794 5796 5796 5797 5799 5800 5801 5801 5802 5803 5804 5805 5806 5807 5808 5809 5810 5810 5810 5811 5811 5811 5811 5811 5812 5811 5810 5812 5813 5812 5812 5812 5811 5811 5811 5811 5811 5811 5811 5811 5812 5813 5811 5810 5810 5810 5810 5810 5810 5810 5811 5811 5811 5811 5811 5811 5811 5810 5810 5810 5811 5811 5811 5811 5811 5811 5811 5811
5756 5759 5761 5763 5765 5767 5769 5770 5773 5774 5776 5777 5778 5779 5781 5782 5783 5784 5784 5784 5787 5791 5792 5792 5794 5795 5796 5797 5797 5798 5799 5801 5802 5803 5804 5804 5805 5806 5806 5807 5807 5807 5807 5807 5807 5806 5806 5807 5807 5807 5808 5807 5806 5807 5807 5807 5807 5806 5806 5806 5807 5807 5806 5805 5805 5805 5805 5805 5806 5806 5806 5807 5807 5807 5807 5807 5807 5806 5806 5806 5806 5806 5806 5806 5806 5806 5806 5806
5750 5753 5755 5757 5759 5761 5763 5765 5767 5769 5770 5772 5773 5774 5775 5776 5777 5778 5779 5778 5780 5786 5789 5788 5789 5790 5791 5792 5793 5794 5794 5796 5798 5798 5799 5800 5801 5801 5802 5802 5802 5802 5803 5803 5802 5801 5802 5803 5803 5803 5802 5802 5801 5802 5802 5802 5801 5801 5802 5802 5802 5801 5800 5800 5800 5800 5800 5801 5802 5801 5801 5803 5804 5803 5804 5803 5803 5802 5803 5803 5802 5802 5802 5802 5801 5801 5801 5801
5743 5746 5748 5751 5753 5755 5757 5760 5762 5763 5765 5766 5767 5768 5769 5770 5772 5772 5773 5772 5772 5778 5784 5784 5784 5784 5786 5787 5788 5789 5789 5791 5794 5794 5795 5796 5796 5797 5797 5797 5797 5798 5798 5798 5796 5796 5798 5799 5799 5798 5797 5797 5797 5798 5798 5797 5795 5796 5798 5797 5796 5796 5795 5795 5795 5795 5795 5796 5797 5797 5798 5798 5799 5800 5800 5800 5799 5799 5799 5799 5799 5799 5798 5798 5798 5797 5797 5797
5736 5739 5741 5744 5746 5748 5752 5755 5756 5757 5759 5760 5760 5762 5763 5765 5766 5767 5768 5766 5765 5771 5777 5779 5779 5779 5781 5782 5783 5784 5784 5787 5790 5790 5790 5791 5791 5792 5791 5792 5793 5793 5793 5792 5791 5792 5794 5794 5793 5793 5792 5792 5793 5793 5793 5791 5791 5792 5793 5792 5792 5791 5790 5790 5791 5791 5791 5792 5792 5794 5795 5794 5794 5796 5797 5797 5797 5797 5797 5796 5796 5796 5795 5795 5795 5794 5794 5793
5730 5732 5735 5738 5740 5743 5746 5748 5750 5752 5753 5753 5754 5756 5757 5759 5760 5762 5763 5760 5758 5763 5769 5771 5773 5776 5777 5778 5779 5779 5780 5782 5784 5785 5786 5786 5786 5787 5786 5787 5788 5787 5787 5786 5786 5788 5789 5788 5788 5788 5787 5788 5788 5788 5787 5787 5787 5788 5788 5788 5787 5787 5786 5786 5786 5787 5787 5787 5788 5790 5791 5789 5789 5791 5793 5793 5794 5794 5793 5793 5793 5792 5792 5792 5791 5790 5790 5789
5722 5725 5728 5731 5733 5737 5739 5742 5744 5745 5746 5747 5748 5750 5751 5753 5754 5756 5756 5754 5753 5756 5760 5763 5767 5772 5773 5773 5774 5775 5776 5777 5778 5779 5781 5780 5781 5781 5781 5782 5782 5781 5782 5782 5782 5783 5782 5782 5782 5782 5782 5783 5783 5783 5783 5783 5783 5784 5784 5783 5783 5782 5782 5782 5782 5783 5783 5783 5785 5786 5786 5784 5783 5785 5788 5789 5789 5789 5789 5789 5788 5787 5787 5787 5786 5785 5785 5784
5715 5718 5721 5723 5727 5730 5733 5736 5738 5738 5740 5741 5742 5743 5745 5746 5748 5749 5747 5747 5748 5749 5753 5757 5761 5765 5768 5769 5769 5770 5771 5772 5773 5774 5774 5775 5776 5776 5776 5776 5776 5776 5777 5777 5777 5777 5777 5777 5777 5776 5777 5777 5777 5778 5778 5779 5779 5779 5779 5779 5779 5778 5778 5778 5778 5778 5778 5780 5782 5782 5781 5780 5778 5778 5781 5782 5783 5783 5782 5782 5782 5782 5781 5781 5780 5779 5779 5778
5708 5711 5713 5717 5721 5724 5727 5730 5731 5731 5732 5733 5735 5737 5739 5740 5740 5739 5739 5743 5745 5744 5747 5751 5753 5757 5762 5764 5765 5765 5766 5766 5767 5768 5769 5769 5770 5770 5771 5771 5771 5771 5770 5771 5772 5772 5771 5771 5771 5771 5771 5772 5773 5773 5773 5774 5775 5774 5774 5774 5774 5773 5774 5774 5774 5774 5774 5776 5777 5776 5776 5775 5773 5773 5775 5775 5776 5776 5775 5775 5775 5775 5775 5775 5774 5773 5773 5773
5702 5704 5707 5711 5715 5717 5721 5724 5723 5723 5725 5727 5729 5730 5732 5732 5729 5731 5736 5739 5739 5738 5742 5745 5746 5750 5754 5757 5759 5760 5760 5761 5761 5762 5763 5763 5763 5764 5765 5765 5766 5765 5764 5766 5766 5766 5766 5766 5766 5766 5766 5767 5768 5768 5769 5769 5770 5769 5769 5769 5769 5769 5770 5770 5770 5771 5771 5771 5771 5771 5770 5769 5769 5770 5770 5770 5770 5769 5768 5768 5769 5769 5768 5768 5768 5767 5767 5767
5695 5698 5700 5704 5708 5711 5715 5717 5715 5716 5718 5720 5721 5723 5725 5721 5720 5728 5732 5732 5732 5733 5737 5740 5741 5743 5746 5748 5752 5753 5754 5755 5756 5756 5756 5757 5757 5758 5759 5759 5760 5759 5759 5760 5760 5760 5760 5760 5761 5761 5762 5763 5763 5764 5764 5764 5764 5764 5764 5765 5765 5765 5765 5766 5767 5767 5766 5767 5767 5766 5764 5764 5765 5766 5766 5765 5765 5763 5763 5762 5762 5761 5761 5761 5761 5761 5761 5761
5689 5691 5693 5696 5701 5705 5709 5710 5709 5710 5711 5712 5714 5716 5714 5711 5716 5723 5723 5725 5728 5729 5732 5734 5735 5737 5738 5740 5743 5745 5747 5748 5750 5751 5751 5751 5751 5752 5753 5753 5753 5753 5753 5754 5754 5755 5755 5755 5756 5757 5757 5758 5758 5759 5759 5759 5759 5759 5759 5760 5760 5760 5761 5762 5762 5761 5761 5762 5762 5761 5760 5760 5760 5761 5760 5759 5759 5758 5758 5756 5756 5755 5755 5755 5755 5755 5755 5755
5682 5684 5686 5689 5693 5697 5702 5703 5703 5703 5703 5704 5705 5704 5702 5706 5713 5716 5716 5721 5724 5724 5727 5728 5728 5730 5730 5731 5734 5737 5740 5741 5743 5744 5744 5745 5745 5746 5747 5747 5747 5747 5748 5748 5749 5750 5750 5751 5752 5752 5753 5753 5754 5754 5754 5754 5754 5754 5754 5754 5755 5756 5757 5757 5756 5755 5756 5756 5756 5756 5756 5756 5756 5754 5753 5752 5752 5752 5752 5751 5750 5750 5750 5750 5750 5750 5749 5748
5676 5677 5680 5683 5687 5691 5694 5696 5696 5696 5695 5696 5693 5691 5695 5703 5707 5708 5711 5715 5717 5719 5722 5721 5721 5722 5722 5724 5727 5729 5732 5734 5736 5736 5737 5738 5739 5740 5741 5741 5742 5742 5742 5743 5744 5744 5745 5746 5747 5748 5748 5749 5749 5749 5749 5749 5749 5749 5749 5750 5751 5751 5751 5751 5750 5751 5751 5749 5750 5751 5750 5751 5750 5748 5748 5747 5747 5746 5745 5745 5745 5745 5745 5745 5745 5744 5743 5742
5669 5672 5674 5678 5683 5685 5687 5690 5691 5689 5689 5686 5682 5684 5693 5698 5700 5702 5705 5707 5709 5712 5714 5714 5715 5715 5716 5718 5719 5722 5725 5726 5728 5729 5730 5732 5733 5734 5736 5736 5737 5737 5737 5738 5738 5738 5739 5740 5741 5743 5743 5744 5744 5744 5744 5744 5744 5744 5745 5746 5746 5745 5745 5745 5745 5745 5744 5743 5743 5744 5744 5744 5743 5742 5742 5742 5740 5739 5738 5738 5739 5739 5740 5740 5739 5737 5737 5737
5665 5666 5669 5674 5678 5679 5682 5684 5684 5683 5682 5677 5674 5681 5690 5691 5693 5696 5697 5699 5702 5704 5706 5707 5708 5710 5711 5712 5713 5716 5717 5718 5720 5722 5724 5725 5726 5728 5730 5731 5731 5732 5732 5732 5731 5733 5734 5734 5735 5736 5737 5738 5739 5739 5739 5739 5740 5741 5741 5741 5740 5739 5739 5739 5739 5739 5738 5737 5736 5737 5737 5737 5736 5735 5735 5735 5734 5733 5732 5732 5733 5734 5733 5733 5732 5731 5730 5730
5659 5658 5661 5668 5672 5673 5677 5678 5677 5676 5673 5669 5669 5677 5683 5684 5687 5690 5691 5693 5695 5697 5699 5701 5702 5704 5705 5707 5708 5709 5710 5711 5713 5715 5717 5718 5720 5722 5723 5724 5725 5726 5726 5726 5726 5727 5728 5728 5729 5730 5732 5733 5733 5733 5733 5735 5736 5736 5735 5734 5734 5733 5733 5733 5733 5733 5732 5730 5729 5730 5730 5730 5729 5729 5728 5727 5727 5726 5727 5727 5727 5728 5727 5725 5725 5724 5724 5723
5652 5651 5654 5662 5665 5668 5671 5670 5668 5665 5662 5663 5666 5672 5677 5679 5681 5683 5685 5688 5689 5691 5694 5695 5697 5698 5700 5702 5703 5704 5704 5705 5707 5709 5710 5711 5713 5715 5717 5718 5719 5720 5720 5720 5720 5721 5722 5723 5724 5726 5726 5726 5727 5728 5729 5730 5729 5728 5728 5728 5728 5728 5728 5727 5727 5727 5726 5725 5724 5723 5723 5724 5723 5721 5720 5720 5721 5719 5720 5722 5721 5721 5720 5719 5718 5718 5717 5716
5645 5644 5649 5656 5658 5660 5662 5659 5657 5656 5655 5659 5663 5666 5671 5673 5675 5677 5680 5682 5683 5685 5688 5689 5690 5692 5693 5695 5696 5698 5699 5699 5701 5703 5704 5706 5707 5708 5710 5711 5712 5713 5713 5713 5715 5716 5717 5718 5719 5720 5720 5720 5721 5723 5723 5722 5722 5722 5722 5722 5723 5723 5722 5720 5720 5721 5720 5720 5719 5716 5717 5720 5718 5714 5713 5713 5714 5713 5713 5714 5714 5713 5712 5711 5711 5711 5710 5710
5637 5636 5643 5649 5649 5652 5652 5648 5649 5650 5649 5654 5659 5661 5664 5667 5669 5672 5674 5675 5677 5678 5681 5682 5684 5686 5687 5688 5690 5691 5692 5693 5694 5696 5699 5701 5702 5703 5704 5703 5704 5706 5706 5708 5710 5711 5711 5712 5712 5713 5713 5714 5715 5715 5716 5715 5715 5716 5716 5717 5718 5717 5716 5713 5713 5715 5713 5712 5712 5708 5709 5714 5714 5710 5708 5707 5709 5709 5707 5706 5706 5705 5704 5704 5704 5704 5703 5702
5628 5631 5636 5640 5641 5645 5643 5639 5642 5644 5644 5649 5654 5654 5656 5660 5663 5665 5667 5669 5671 5672 5674 5676 5678 5680 5681 5683 5684 5684 5686 5686 5687 5690 5693 5695 5697 5698 5697 5697 5698 5699 5699 5701 5703 5704 5704 5705 5706 5706 5707 5708 5707 5708 5708 5708 5708 5709 5710 5712 5711 5709 5710 5708 5706 5707 5704 5704 5705 5700 5701 5708 5708 5707 5705 5702 5703 5704 5702 5700 5698 5697 5697 5697 5697 5696 5694 5693
5622 5624 5628 5630 5633 5634 5631 5629 5634 5638 5640 5644 5646 5647 5650 5654 5656 5658 5661 5663 5664 5667 5669 5671 5673 5675 5676 5678 5678 5679 5680 5680 5680 5683 5686 5688 5689 5691 5691 5692 5693 5693 5692 5693 5695 5695 5696 5697 5699 5699 5698 5699 5698 5699 5701 5702 5703 5704 5703 5703 5702 5703 5703 5700 5699 5698 5696 5698 5698 5693 5694 5702 5702 5701 5700 5697 5696 5697 5696 5694 5691 5690 5690 5690 5688 5687 5685 5684
5615 5616 5618 5622 5624 5624 5623 5624 5628 5632 5635 5638 5639 5641 5644 5647 5650 5653 5655 5656 5658 5660 5662 5664 5667 5669 5670 5671 5672 5672 5673 5673 5674 5676 5678 5680 5682 5684 5684 5685 5686 5686 5685 5685 5686 5687 5687 5689 5690 5690 5690 5690 5690 5692 5695 5696 5696 5695 5695 5695 5695 5696 5695 5693 5692 5690 5687 5690 5691 5687 5688 5694 5696 5693 5689 5689 5690 5689 5687 5686 5685 5684 5682 5680 5679 5678 5677 5675
5608 5608 5611 5614 5615 5616 5617 5620 5622 5625 5629 5632 5633 5635 5638 5640 5644 5648 5649 5650 5652 5653 5655 5657 5659 5661 5663 5665 5665 5665 5666 5667 5668 5669 5672 5674 5675 5676 5677 5678 5678 5679 5679 5679 5680 5680 5679 5681 5682 5683 5683 5684 5684 5686 5687 5687 5686 5686 5687 5689 5689 5688 5688 5686 5683 5681 5681 5680 5680 5683 5682 5682 5687 5685 5679 5681 5684 5681 5679 5678 5678 5677 5674 5671 5670 5669 5668 5666
5599 5601 5604 5606 5607 5608 5611 5614 5617 5619 5623 5626 5626 5628 5632 5634 5637 5640 5641 5643 5644 5647 5648 5649 5651 5654 5656 5658 5659 5659 5660 5661 5662 5663 5665 5666 5668 5668 5669 5670 5671 5672 5673 5673 5674 5673 5672 5674 5677 5677 5678 5678 5678 5678 5678 5679 5678 5679 5680 5682 5683 5682 5680 5677 5673 5674 5675 5669 5669 5677 5676 5670 5675 5678 5672 5673 5676 5673 5672 5671 5669 5668 5665 5664 5662 5660 5658 5657
5591 5592 5596 5599 5600 5602 5606 5609 5612 5614 5617 5619 5619 5622 5626 5627 5629 5632 5635 5636 5637 5640 5641 5641 5644 5648 5649 5651 5652 5652 5654 5655 5655 5656 5658 5658 5660 5661 5662 5663 5664 5665 5666 5666 5666 5667 5666 5667 5670 5670 5670 5671 5671 5670 5670 5671 5671 5672 5672 5673 5675 5674 5670 5667 5666 5667 5667 5661 5662 5669 5667 5663 5668 5669 5664 5665 5667 5665 5663 5662 5661 5659 5657 5656 5654 5652 5650 5648
5584 5586 5590 5592 5594 5597 5601 5604 5606 5607 5610 5612 5613 5616 5619 5621 5624 5626 5628 5629 5630 5632 5633 5634 5639 5642 5643 5644 5645 5645 5648 5649 5648 5650 5651 5652 5653 5654 5655 5656 5656 5657 5658 5658 5659 5660 5659 5661 5663 5662 5662 5664 5664 5662 5663 5663 5662 5663 5664 5666 5668 5666 5661 5659 5660 5660 5658 5655 5657 5658 5656 5658 5662 5659 5656 5657 5658 5656 5653 5652 5651 5650 5649 5647 5646 5644 5642 5639
5578 5581 5584 5585 5588 5591 5594 5596 5599 5600 5602 5604 5606 5609 5613 5615 5617 5619 5621 5623 5623 5625 5627 5630 5633 5634 5635 5636 5637 5640 5642 5642 5641 5642 5644 5644 5645 5646 5647 5648 5648 5650 5651 5651 5651 5652 5652 5653 5655 5655 5654 5656 5658 5656 5655 5655 5653 5653 5655 5660 5662 5657 5653 5653 5655 5654 5651 5649 5650 5649 5646 5650 5655 5652 5648 5648 5647 5645 5644 5643 5642 5640 5639 5638 5637 5635 5633 5630
5571 5574 5576 5579 5581 5583 5585 5589 5591 5593 5594 5597 5600 5604 5606 5608 5611 5612 5614 5616 5617 5619 5621 5623 5624 5626 5627 5628 5631 5634 5634 5633 5633 5634 5635 5636 5637 5639 5640 5640 5641 5642 5643 5644 5644 5645 5645 5645 5647 5647 5645 5647 5651 5649 5646 5647 5645 5643 5648 5655 5655 5650 5649 5649 5648 5647 5645 5643 5643 5640 5637 5642 5647 5644 5640 5638 5638 5637 5636 5634 5632 5631 5630 5629 5628 5626 5623 5621
5563 5565 5568 5571 5572 5573 5577 5580 5583 5585 5588 5591 5595 5597 5599 5602 5604 5605 5607 5609 5611 5613 5614 5615 5616 5617 5618 5621 5624 5626 5624 5624 5624 5625 5627 5629 5630 5632 5633 5634 5635 5636 5637 5638 5637 5639 5639 5638 5640 5640 5636 5639 5643 5641 5639 5639 5634 5634 5644 5651 5649 5645 5644 5642 5640 5641 5641 5638 5634 5631 5631 5636 5637 5635 5633 5631 5630 5629 5627 5625 5623 5622 5621 5620 5618 5616 5613 5612